Location: Le Gr�zie
(43.6000°N, 13.5000°E)
Time: 08:57:38
(UTC+00:00)

Cosmos 2322 Rocket - Pass Details

Date: 09 April 2020
Orbit: 834 x 849 km, 71.0° (Epoch: 04 June)

Event Time Altitude Azimuth Distance (km) Brightness Sun altitude
Rises 23:20:06 0° 328° (NNW) 3,399 6.0 -38.3°
Reaches altitude 10° 23:22:40 10° 322° (NW) 2,458 5.0 -38.2°
Enters shadow 23:24:02 17° 316° (NW) 1,986 4.4 -38.2°
